• In Czech Republic
  • List of Countries
  • For 7 days
  • Water Temperature
  • Satellite Maps
  • Weather Map
  • Weather Widgets
  • user-avatar
    Login

    Hourly Weather Kosiv

    Today, 19 June, Tuesday

    Time Temperature Precipitation Wind Pressure Humidity
    00:00 +20°C° 0 mm 2 mps 731 mmHg 88%
    01:00 +22°C° 0 mm 1 mps 731 mmHg 81%
    02:00 +14°C° 0 mm 0 mps 732 mmHg 100%
    03:00 +18°C° 0 mm 1 mps 732 mmHg 90%
    04:00 +19°C° 0 mm 1 mps 732 mmHg 83%
    05:00 +20°C° 0 mm 1 mps 732 mmHg 80%
    06:00 +20°C° 0 mm 1 mps 732 mmHg 80%
    07:00 +21°C° 0 mm 1 mps 733 mmHg 88%
    08:00 +22°C° 0 mm 1 mps 733 mmHg 91%
    09:00 +23°C° 0 mm 1 mps 733 mmHg 90%
    10:00 +24°C° 0 mm 1 mps 734 mmHg 89%
    11:00 +25°C° 0 mm 1 mps 734 mmHg 88%
    12:00 +26°C° 0 mm 1 mps 734 mmHg 88%
    13:00 +26°C° 0 mm 2 mps 734 mmHg 85%
    14:00 +27°C° 0 mm 1 mps 734 mmHg 81%
    15:00 +27°C° 0 mm 1 mps 733 mmHg 79%
    16:00 +27°C° 0 mm 1 mps 733 mmHg 80%
    17:00 +27°C° 0 mm 2 mps 733 mmHg 81%
    18:00 +27°C° 0 mm 1 mps 733 mmHg 80%
    19:00 +26°C° 0 mm 1 mps 733 mmHg 86%
    20:00 +25°C° 0 mm 1 mps 733 mmHg 89%
    21:00 +23°C° 0 mm 0 mps 733 mmHg 87%
    22:00 +24°C° 0 mm 1 mps 734 mmHg 91%
    23:00 +24°C° 0 mm 1 mps 734 mmHg 91%

    Tomorrow, 20 June, Wednesday

    Time Temperature Precipitation Wind Pressure Humidity
    00:00 +21°C° 0 mm 3 mps 734 mmHg 100%
    01:00 +21°C° 0 mm 3 mps 734 mmHg 98%
    02:00 +21°C° 0 mm 3 mps 735 mmHg 100%
    03:00 +20°C° 0 mm 3 mps 735 mmHg 100%
    04:00 +20°C° 0 mm 2 mps 735 mmHg 100%
    05:00 +20°C° 0 mm 2 mps 735 mmHg 100%
    06:00 +20°C° 0 mm 2 mps 735 mmHg 100%
    07:00 +20°C° 0 mm 2 mps 735 mmHg 100%
    08:00 +21°C° 0 mm 2 mps 736 mmHg 100%
    09:00 +21°C° 0 mm 2 mps 736 mmHg 97%
    10:00 +23°C° 0 mm 1 mps 736 mmHg 94%
    11:00 +24°C° 0 mm 1 mps 736 mmHg 89%
    12:00 +24°C° 0 mm 1 mps 736 mmHg 88%
    13:00 +25°C° 0 mm 1 mps 736 mmHg 87%
    14:00 +25°C° 0 mm 3 mps 736 mmHg 86%
    15:00 +26°C° 0 mm 2 mps 735 mmHg 85%
    16:00 +26°C° 0 mm 2 mps 735 mmHg 84%
    17:00 +26°C° 0 mm 2 mps 735 mmHg 83%
    18:00 +25°C° 0 mm 2 mps 735 mmHg 86%
    19:00 +25°C° 0 mm 2 mps 734 mmHg 88%
    20:00 +22°C° 0 mm 0 mps 735 mmHg 93%
    21:00 +24°C° 0 mm 1 mps 735 mmHg 91%
    22:00 +21°C° 0 mm 0 mps 735 mmHg 93%
    23:00 +21°C° 0 mm 0 mps 735 mmHg 94%

    Day after tomorrow, 21 June, Thursday

    Time Temperature Precipitation Wind Pressure Humidity
    00:00 +20°C° 0 mm 0 mps 735 mmHg 94%
    01:00 +20°C° 0 mm 0 mps 734 mmHg 95%
    02:00 +22°C° 0 mm 1 mps 734 mmHg 95%
    03:00 +21°C° 0 mm 1 mps 734 mmHg 94%
    04:00 +21°C° 0 mm 1 mps 734 mmHg 91%
    05:00 +20°C° 0 mm 2 mps 734 mmHg 90%
    06:00 +21°C° 0 mm 1 mps 733 mmHg 90%
    07:00 +22°C° 0 mm 1 mps 733 mmHg 93%
    08:00 +24°C° 0 mm 2 mps 733 mmHg 90%
    09:00 +24°C° 0 mm 2 mps 733 mmHg 91%
    10:00 +25°C° 0 mm 2 mps 733 mmHg 90%
    11:00 +26°C° 0 mm 3 mps 733 mmHg 90%
    12:00 +27°C° 0 mm 3 mps 732 mmHg 90%
    13:00 +27°C° 0 mm 3 mps 731 mmHg 87%
    14:00 +27°C° 0 mm 3 mps 731 mmHg 84%
    15:00 +27°C° 1.5 mm 3 mps 731 mmHg 86%
    16:00 +27°C° 0.9 mm 2 mps 730 mmHg 84%
    17:00 +27°C° 0 mm 2 mps 729 mmHg 81%
    18:00 +27°C° 0 mm 2 mps 729 mmHg 86%
    19:00 +26°C° 0 mm 3 mps 728 mmHg 91%
    20:00 +26°C° 0 mm 2 mps 728 mmHg 92%
    21:00 +25°C° 0 mm 2 mps 728 mmHg 94%
    22:00 +24°C° 0 mm 2 mps 727 mmHg 93%
    23:00 +24°C° 0 mm 3 mps 727 mmHg 89%

    22 June, Friday

    Time Temperature Precipitation Wind Pressure Humidity
    00:00 +22°C° 0 mm 3 mps 726 mmHg 86%
    01:00 +22°C° 0 mm 4 mps 726 mmHg 84%
    02:00 +22°C° 0 mm 4 mps 726 mmHg 85%
    03:00 +21°C° 0 mm 2 mps 725 mmHg 86%
    04:00 +22°C° 0 mm 1 mps 725 mmHg 90%
    05:00 +19°C° 0 mm 0 mps 726 mmHg 93%
    06:00 +22°C° 0 mm 1 mps 725 mmHg 93%
    07:00 +23°C° 0 mm 1 mps 726 mmHg 96%
    08:00 +24°C° 0 mm 3 mps 726 mmHg 91%
    09:00 +20°C° 3.5 mm 6 mps 726 mmHg 98%
    10:00 +19°C° 2.8 mm 4 mps 727 mmHg 100%
    11:00 +19°C° 1.1 mm 4 mps 726 mmHg 99%
    12:00 +19°C° 0 mm 5 mps 726 mmHg 99%
    13:00 +17°C° 0 mm 6 mps 727 mmHg 99%
    14:00 +16°C° 0 mm 5 mps 726 mmHg 96%
    15:00 +15°C° 0 mm 6 mps 726 mmHg 98%
    16:00 +16°C° 0 mm 5 mps 726 mmHg 96%
    17:00 +18°C° 0 mm 4 mps 727 mmHg 92%
    18:00 +17°C° 0 mm 5 mps 727 mmHg 90%
    19:00 +17°C° 0 mm 3 mps 727 mmHg 92%
    20:00 +17°C° 0 mm 3 mps 727 mmHg 95%
    21:00 +15°C° 0 mm 5 mps 727 mmHg 97%
    22:00 +14°C° 0 mm 4 mps 728 mmHg 85%
    23:00 +14°C° 0 mm 3 mps 728 mmHg 87%

    23 June, Saturday

    Time Temperature Precipitation Wind Pressure Humidity
    00:00 +13°C° 0 mm 4 mps 728 mmHg 93%
    01:00 +13°C° 0 mm 4 mps 728 mmHg 87%
    02:00 +13°C° 0 mm 4 mps 728 mmHg 87%

    24 June, Sunday

    Time Temperature Precipitation Wind Pressure Humidity
    Show more